Cork, Ireland

12:23 PM GMT on January 18, 2017 (GMT +0000)
Cork

Weather History for EICK - September, 2013

Change the Weather History Date:

Thursday, September 19, 2013

  Actual Average Record
Temperature  
Mean Temperature 53 °F -  
Max Temperature 63 °F 58 °F 64 °F (2001)
Min Temperature 43 °F 47 °F 42 °F (2000)
Degree Days  
Heating Degree Days 12    
Growing Degree Days 3 (Base 50)    
Moisture  
Dew Point 50 °F    
Average Humidity 81    
Maximum Humidity 100    
Minimum Humidity 55    
Precipitation  
Precipitation 0.01 in 0.15 in - ()
Sea Level Pressure  
Sea Level Pressure 29.86 in    
Wind  
Wind Speed 12 mph ()    
Max Wind Speed 25 mph    
Max Gust Speed 37 mph    
Visibility 6.2 miles    
Events Rain    
Averages and records for this station are not official NWS values.
T = Trace of Precipitation, MM = Missing Value Source: Averaged Metar Reports

Daily Weather History Graph

Daily Weather History Graph

Search for Another Location

Airport or City:

Trip Planner

Search our weather history database for the weather conditions in past years. The results will help you decide how hot, cold, wet, or windy it might be!

Date:

Astronomy

Sep. 19, 2013 Rise Set
Actual Time 7:15 AM IST 7:39 PM IST
Civil Twilight 6:41 AM IST 8:12 PM IST
Nautical Twilight 6:01 AM IST 8:52 PM IST
Astronomical Twilight 5:19 AM IST 9:34 PM IST
Moon 7:21 PM IST (9/19) 7:14 AM IST (9/19)
Length of Visible Light 13h 31m
Length of Day
12h 23m
Full, 100% of the Moon is Illuminated
Sep 19
Full
Sep 19
Full
Sep 27
Last Quarter
Oct 5
New
Oct 12
First Quarter

Hourly Weather History & Observations

Time (IST) Temp. Windchill Dew Point Humidity Pressure Visibility Wind Dir Wind Speed Gust Speed Precip Events Conditions
12:00 AM 46.4 °F 43.5 °F 42.8 °F 87% 29.92 in 6.2 mi WSW 5.8 mph - N/A   Partly Cloudy
12:30 AM 42.8 °F 38.6 °F 41.0 °F 93% 29.92 in 6.2 mi SW 6.9 mph - N/A   Partly Cloudy
1:00 AM 43 °F - 42 °F 94% 29.94 in 19 mi SSW 4.5 mph - -   Mostly Cloudy
1:00 AM 42.8 °F 40.1 °F 42.8 °F 100% 29.92 in - SSW 4.6 mph - N/A   Clear
1:30 AM 44.6 °F 43.1 °F 44.6 °F 100% 29.92 in 6.2 mi SW 3.5 mph - N/A   Mostly Cloudy
2:00 AM 48.2 °F - 46.4 °F 93% 29.89 in 6.2 mi SSW 4.6 mph - N/A   Mostly Cloudy
2:30 AM 48.2 °F - 46.4 °F 93% 29.89 in 6.2 mi SSW 6.9 mph - N/A   Mostly Cloudy
3:00 AM 50.0 °F - 48.2 °F 94% 29.86 in 6.2 mi SSW 8.1 mph - N/A   Mostly Cloudy
3:30 AM 50.0 °F - 50.0 °F 100% 29.83 in 6.2 mi SSW 8.1 mph - N/A   Mostly Cloudy
4:00 AM 51.8 °F - 51.8 °F 100% 29.80 in 6.2 mi SSW 11.5 mph - N/A   Mostly Cloudy
4:30 AM 53.6 °F - 53.6 °F 100% 29.80 in 6.2 mi SSW 11.5 mph - N/A   Mostly Cloudy
5:00 AM 53.6 °F - 53.6 °F 100% 29.77 in 1.2 mi SSW 12.7 mph - N/A   Light Drizzle
5:30 AM 55.4 °F - 55.4 °F 100% 29.74 in 1.2 mi SSW 16.1 mph - N/A   Light Drizzle
6:00 AM 55.4 °F - 55.4 °F 100% 29.74 in 0.9 mi SSW 15.0 mph - N/A   Light Drizzle
6:30 AM 57.2 °F - 57.2 °F 100% 29.71 in 0.7 mi SSW 13.8 mph - N/A Rain Light Rain
7:00 AM 58 °F - 58 °F 100% 29.71 in 2 mi SW 15.7 mph - - Rain Light Rain
7:00 AM 57.2 °F - 57.2 °F 100% 29.71 in 1.6 mi SW 15.0 mph - N/A Rain Light Rain
7:30 AM 59.0 °F - 59.0 °F 100% 29.71 in 3.7 mi SW 12.7 mph - N/A   Mostly Cloudy
8:00 AM 59.0 °F - 59.0 °F 100% 29.71 in 6.2 mi WSW 12.7 mph - N/A   Mostly Cloudy
9:00 AM 59.0 °F - 59.0 °F 100% 29.74 in 6.2 mi West 12.7 mph - N/A   Scattered Clouds
9:30 AM 59.0 °F - 57.2 °F 94% 29.74 in 6.2 mi WNW 17.3 mph - N/A   Mostly Cloudy
10:00 AM 59.0 °F - 55.4 °F 88% 29.77 in 6.2 mi NW 19.6 mph - N/A   Mostly Cloudy
10:30 AM 60.8 °F - 53.6 °F 77% 29.77 in 6.2 mi WNW 23.0 mph - N/A   Mostly Cloudy
11:00 AM 59.0 °F - 51.8 °F 77% 29.77 in 6.2 mi WNW 25.3 mph 36.8 mph N/A   Mostly Cloudy
11:30 AM 59.0 °F - 50.0 °F 72% 29.80 in 6.2 mi WNW 23.0 mph - N/A   Scattered Clouds
12:00 PM 59.0 °F - 51.8 °F 77% 29.83 in 6.2 mi West 13.8 mph - N/A   Mostly Cloudy
12:30 PM 60.8 °F - 50.0 °F 68% 29.83 in 6.2 mi WNW 18.4 mph - N/A   Mostly Cloudy
1:00 PM 62 °F - 50 °F 55% 29.83 in 19 mi WNW 20.1 mph - -   Partly Cloudy
1:00 PM 62.6 °F - 50.0 °F 63% 29.83 in 6.2 mi WNW 20.7 mph - N/A   Mostly Cloudy
1:30 PM 60.8 °F - 50.0 °F 68% 29.83 in 6.2 mi NW 23.0 mph - N/A   Scattered Clouds
2:00 PM 60.8 °F - 48.2 °F 63% 29.86 in 6.2 mi WNW 20.7 mph - N/A   Scattered Clouds
2:30 PM 60.8 °F - 48.2 °F 63% 29.86 in 6.2 mi NW 25.3 mph - N/A   Partly Cloudy
3:00 PM 60.8 °F - 48.2 °F 63% 29.86 in 6.2 mi WNW 19.6 mph - N/A   Partly Cloudy
3:30 PM 60.8 °F - 48.2 °F 63% 29.86 in 6.2 mi WNW 19.6 mph - N/A   Scattered Clouds
4:00 PM 60.8 °F - 48.2 °F 63% 29.86 in 6.2 mi NW 17.3 mph - N/A   Partly Cloudy
4:30 PM 60.8 °F - 48.2 °F 63% 29.86 in 6.2 mi WNW 19.6 mph - N/A   Partly Cloudy
5:00 PM 60.8 °F - 46.4 °F 59% 29.89 in 6.2 mi WNW 21.9 mph - N/A   Partly Cloudy
5:30 PM 60.8 °F - 46.4 °F 59% 29.89 in 6.2 mi WNW 23.0 mph - N/A   Partly Cloudy
6:00 PM 59.0 °F - 46.4 °F 63% 29.89 in 6.2 mi NW 21.9 mph - N/A   Partly Cloudy
6:30 PM 57.2 °F - 46.4 °F 67% 29.92 in 6.2 mi WNW 18.4 mph - N/A   Partly Cloudy
7:00 PM 56 °F - 47 °F 63% 29.93 in 12 mi NW 17.9 mph - -   Partly Cloudy
7:00 PM 55.4 °F - 46.4 °F 72% 29.92 in 6.2 mi NW 17.3 mph - N/A   Scattered Clouds
7:30 PM 55.4 °F - 46.4 °F 72% 29.95 in 6.2 mi WNW 13.8 mph - N/A   Scattered Clouds
8:00 PM 55.4 °F - 46.4 °F 72% 29.95 in 6.2 mi WNW 16.1 mph - N/A   Mostly Cloudy
8:30 PM 53.6 °F - 46.4 °F 77% 29.95 in 6.2 mi WNW 16.1 mph - N/A   Mostly Cloudy
9:00 PM 53.6 °F - 46.4 °F 77% 29.98 in 6.2 mi WNW 12.7 mph - N/A   Mostly Cloudy
9:30 PM 53.6 °F - 46.4 °F 77% 29.98 in 6.2 mi WNW 12.7 mph - N/A   Mostly Cloudy
10:00 PM 53.6 °F - 46.4 °F 77% 29.98 in 6.2 mi WNW 10.4 mph - N/A   Mostly Cloudy
10:30 PM 53.6 °F - 46.4 °F 77% 30.01 in 6.2 mi West 5.8 mph - N/A   Mostly Cloudy
11:00 PM 53.6 °F - 46.4 °F 77% 30.01 in 6.2 mi West 8.1 mph - N/A   Mostly Cloudy
11:30 PM 53.6 °F - 46.4 °F 77% 30.01 in 6.2 mi WNW 9.2 mph - N/A   Mostly Cloudy